Weather in Kaspiyskiy

Russia / Republic of Kalmykia     45°38′31″N   47°24′24″E
temp.,
°C
wind,
m/s
gust,
m/s
humid.,
%
clouds,
%
prec.,
mm/h
press.,
hPa
HPBL,
m
17 april, sat
sat1700:00+15sw3344100 0.0 101925
03:00+13wsw1255100 0.0 101910
06:00+15sse2250100 0.0 101913
09:00+20sse233736 0.0 1019666
12:00+21sse5433100 0.0 1020810
15:00+20sse5531100 0.0 1019631
18:00+17s4540100 0.0 1020273
21:00+16sw3443100 0.0 1020116
18 april, sun
sun1800:00+15n5872100 0.1 1020356
03:00+14nne3578100 0.7 1020303
06:00+14n46766 0.0 1020320
09:00+17nne3358100 0.0 1020871
12:00+20n224473 0.0 10191598
15:00+21ne2241100 0.0 10181715
18:00+19e2251100 0.1 1018558
21:00+16ssw3363100 0.1 1019137
19 april, mon
mon1900:00+17wsw0159100 0.0 101821
03:00+16ene236637 0.0 1018113
06:00+15e2268100 0.0 101863
09:00+17ese3357100 0.0 1018572
12:00+20se5446100 0.0 10171333
15:00+20sse5448100 0.0 1016913
18:00+17sse4559100 0.0 1017320
21:00+16sse3562100 0.0 1018201
20 april, tue
tue2000:00+14sse4767100 0.0 1016193
03:00+14se4770100 0.0 1016151
06:00+15ese7136299 0.0 1014409
09:00+18se101447100 0.0 1014710
12:00+21ese11133695 0.0 1014884
15:00+20ese111541100 0.0 1011802
18:00+17e91556100 0.0 1012604
21:00+16e3660100 0.0 1013205
21 april, wed
wed2100:00+16ese61065100 0.0 1013274
03:00+15ese6971100 0.0 1014241
06:00+14ese3677100 0.0 1016218
09:00+17ese5662100 0.0 1018627
12:00+15e5665100 0.0 1018635
15:00+15ene5770100 0.1 1018608
18:00+13n6787100 1.9 1019363
21:00+12n6989100 2.8 1019361